User: anonymous   Login
Location: Theydon Bois
(51.6750°N, 0.1050°E)
Time: 22:51:53
(UTC+01:00)
Language:

SKYMED 2 - Orbit

View from above orbital plane
View from above orbital plane
View from above satellite
View from above satellite

Ground track
Ground track

The orbit data is extracted from the following two-line orbital elements,

1 32376U 07059A   17292.35915316  .00000294  00000-0  43501-4 0  9998
2 32376  97.8885 114.2832 0001501  79.8319 280.3054 14.82150331533587
Epoch (UTC): 19 October 2017 08:37:10
Eccentricity: 0.0001501
inclination: 97.8885°
perigee height: 621 km
apogee height: 623 km
right ascension of ascending node: 114.2832°
argument of perigee: 79.8319°
revolutions per day: 14.82150331
mean anomaly at epoch: 280.3054°
orbit number at epoch: 53358

The dashed part of the orbit path shows where the satellite is in the earth's shadow,  

DLR